When you browse on this site, cookies collect data to enhance your experience and personalize the content and advertising you see.
Visit our Privacy Policy to learn more. By continuing to use the site, you agree to this use of cookies and data.

Hourly Weather Montero

Today, 29 September, Tuesday

Time Temperature Precipitation Wind Pressure Humidity
00:00 +23°C° 0 mm 1 mps 733 mmHg 68%
01:00 +22°C° 0 mm 1 mps 733 mmHg 69%
02:00 +22°C° 0 mm 1 mps 732 mmHg 71%
03:00 +22°C° 0 mm 1 mps 732 mmHg 73%
04:00 +22°C° 0 mm 1 mps 732 mmHg 75%
05:00 +21°C° 0 mm 1 mps 731 mmHg 77%
06:00 +23°C° 0 mm 1 mps 732 mmHg 70%
07:00 +25°C° 0 mm 2 mps 733 mmHg 63%
08:00 +27°C° 0 mm 2 mps 733 mmHg 56%
09:00 +30°C° 0 mm 3 mps 733 mmHg 49%
10:00 +34°C° 0 mm 4 mps 733 mmHg 42%
11:00 +36°C° 0 mm 4 mps 733 mmHg 35%
12:00 +37°C° 0 mm 5 mps 732 mmHg 33%
13:00 +39°C° 0 mm 5 mps 731 mmHg 31%
14:00 +40°C° 0 mm 6 mps 730 mmHg 29%
15:00 +39°C° 0 mm 5 mps 730 mmHg 30%
16:00 +39°C° 0 mm 5 mps 729 mmHg 31%
17:00 +37°C° 0 mm 4 mps 728 mmHg 33%
18:00 +35°C° 0 mm 4 mps 729 mmHg 37%
19:00 +33°C° 0 mm 3 mps 729 mmHg 42%
20:00 +30°C° 0 mm 3 mps 730 mmHg 47%
21:00 +30°C° 0 mm 3 mps 730 mmHg 49%
22:00 +29°C° 0 mm 3 mps 731 mmHg 51%
23:00 +29°C° 0 mm 3 mps 731 mmHg 53%

Tomorrow, 30 September, Wednesday

Time Temperature Precipitation Wind Pressure Humidity
00:00 +28°C° 0 mm 4 mps 730 mmHg 55%
01:00 +28°C° 0 mm 4 mps 730 mmHg 58%
02:00 +27°C° 0 mm 4 mps 730 mmHg 60%
03:00 +27°C° 0 mm 4 mps 730 mmHg 62%
04:00 +27°C° 0 mm 4 mps 730 mmHg 64%
05:00 +27°C° 0 mm 4 mps 730 mmHg 66%
06:00 +28°C° 0 mm 4 mps 730 mmHg 62%
07:00 +29°C° 0 mm 4 mps 731 mmHg 58%
08:00 +30°C° 0 mm 5 mps 731 mmHg 54%
09:00 +34°C° 0 mm 5 mps 731 mmHg 46%
10:00 +38°C° 0 mm 6 mps 731 mmHg 37%
11:00 +40°C° 0 mm 7 mps 731 mmHg 29%
12:00 +41°C° 0 mm 7 mps 730 mmHg 26%
13:00 +43°C° 0 mm 7 mps 729 mmHg 24%
14:00 +44°C° 0 mm 7 mps 728 mmHg 22%
15:00 +44°C° 0 mm 6 mps 728 mmHg 23%
16:00 +42°C° 0 mm 6 mps 727 mmHg 24%
17:00 +41°C° 0 mm 6 mps 727 mmHg 25%
18:00 +39°C° 0 mm 5 mps 727 mmHg 28%
19:00 +36°C° 0 mm 4 mps 727 mmHg 31%
20:00 +34°C° 0 mm 4 mps 728 mmHg 34%
21:00 +34°C° 0 mm 4 mps 728 mmHg 36%
22:00 +33°C° 0 mm 4 mps 729 mmHg 37%
23:00 +33°C° 0 mm 3 mps 729 mmHg 38%

Day after tomorrow, 1 October, Thursday

Time Temperature Precipitation Wind Pressure Humidity
00:00 +31°C° 0 mm 3 mps 729 mmHg 41%
01:00 +30°C° 0 mm 3 mps 729 mmHg 44%
02:00 +29°C° 0 mm 3 mps 728 mmHg 47%
03:00 +29°C° 0 mm 3 mps 728 mmHg 49%
04:00 +29°C° 0 mm 3 mps 728 mmHg 50%
05:00 +29°C° 0 mm 3 mps 728 mmHg 52%
06:00 +30°C° 0 mm 4 mps 729 mmHg 48%
07:00 +33°C° 0 mm 5 mps 729 mmHg 44%
08:00 +34°C° 0 mm 5 mps 730 mmHg 41%
09:00 +38°C° 0 mm 6 mps 730 mmHg 35%
10:00 +40°C° 0 mm 6 mps 730 mmHg 28%
11:00 +44°C° 0 mm 7 mps 730 mmHg 22%
12:00 +45°C° 0 mm 7 mps 729 mmHg 21%
13:00 +45°C° 0 mm 7 mps 728 mmHg 19%
14:00 +46°C° 0 mm 6 mps 727 mmHg 18%
15:00 +45°C° 0 mm 6 mps 727 mmHg 19%
16:00 +45°C° 0 mm 6 mps 726 mmHg 19%
17:00 +43°C° 0 mm 5 mps 726 mmHg 20%
18:00 +41°C° 0 mm 5 mps 726 mmHg 24%
19:00 +37°C° 0 mm 4 mps 726 mmHg 28%
20:00 +35°C° 0 mm 3 mps 727 mmHg 31%
21:00 +34°C° 0 mm 3 mps 727 mmHg 34%
22:00 +33°C° 0 mm 3 mps 728 mmHg 36%
23:00 +33°C° 0 mm 3 mps 728 mmHg 38%

2 October, Friday

Time Temperature Precipitation Wind Pressure Humidity
00:00 +31°C° 0 mm 2 mps 728 mmHg 41%
01:00 +30°C° 0 mm 2 mps 728 mmHg 44%
02:00 +28°C° 0 mm 2 mps 728 mmHg 47%
03:00 +28°C° 0 mm 2 mps 728 mmHg 50%
04:00 +27°C° 0 mm 2 mps 729 mmHg 53%
05:00 +26°C° 0 mm 1 mps 729 mmHg 56%
06:00 +28°C° 0 mm 2 mps 730 mmHg 50%
07:00 +30°C° 0 mm 2 mps 730 mmHg 45%
08:00 +32°C° 0 mm 2 mps 731 mmHg 40%
09:00 +36°C° 0 mm 3 mps 731 mmHg 33%
10:00 +40°C° 0 mm 4 mps 731 mmHg 27%
11:00 +43°C° 0 mm 4 mps 732 mmHg 21%
12:00 +44°C° 0 mm 4 mps 731 mmHg 20%
13:00 +44°C° 0 mm 4 mps 730 mmHg 19%
14:00 +44°C° 0 mm 4 mps 729 mmHg 18%
15:00 +43°C° 0 mm 4 mps 729 mmHg 20%
16:00 +42°C° 0 mm 5 mps 728 mmHg 21%
17:00 +41°C° 0 mm 5 mps 728 mmHg 23%
18:00 +38°C° 0 mm 4 mps 729 mmHg 28%
19:00 +35°C° 0 mm 3 mps 729 mmHg 34%
20:00 +32°C° 0 mm 1 mps 730 mmHg 39%
21:00 +31°C° 0 mm 1 mps 730 mmHg 40%
22:00 +31°C° 0 mm 1 mps 731 mmHg 41%
23:00 +30°C° 0 mm 1 mps 732 mmHg 42%

3 October, Saturday

Time Temperature Precipitation Wind Pressure Humidity
00:00 +30°C° 0.1 mm 3 mps 732 mmHg 44%
01:00 +29°C° 0.1 mm 4 mps 732 mmHg 46%
02:00 +29°C° 0.1 mm 5 mps 732 mmHg 48%
03:00 +27°C° 0.3 mm 5 mps 733 mmHg 52%
04:00 +26°C° 0.3 mm 5 mps 733 mmHg 57%
05:00 +23°C° 0.3 mm 5 mps 734 mmHg 62%
06:00 +25°C° 0.2 mm 5 mps 734 mmHg 58%
07:00 +26°C° 0.2 mm 6 mps 735 mmHg 53%
08:00 +26°C° 0.2 mm 6 mps 736 mmHg 49%
09:00 +28°C° 0 mm 6 mps 736 mmHg 44%
10:00 +32°C° 0 mm 6 mps 736 mmHg 40%
11:00 +34°C° 0 mm 5 mps 736 mmHg 35%
12:00 +35°C° 0 mm 5 mps 735 mmHg 33%
13:00 +36°C° 0 mm 4 mps 734 mmHg 30%
14:00 +38°C° 0 mm 4 mps 733 mmHg 28%
15:00 +38°C° 0 mm 3 mps 732 mmHg 28%
16:00 +37°C° 0 mm 3 mps 732 mmHg 28%
17:00 +37°C° 0 mm 3 mps 731 mmHg 29%
18:00 +35°C° 0 mm 3 mps 732 mmHg 33%
19:00 +33°C° 0 mm 3 mps 732 mmHg 37%
20:00 +30°C° 0 mm 3 mps 733 mmHg 42%
21:00 +29°C° 0 mm 3 mps 733 mmHg 43%
22:00 +28°C° 0 mm 4 mps 734 mmHg 44%
23:00 +28°C° 0 mm 5 mps 735 mmHg 45%

4 October, Sunday

Time Temperature Precipitation Wind Pressure Humidity
00:00 +27°C° 0 mm 5 mps 735 mmHg 46%
01:00 +26°C° 0 mm 6 mps 734 mmHg 48%
02:00 +23°C° 0 mm 6 mps 734 mmHg 49%
03:00 +23°C° 0 mm 6 mps 735 mmHg 51%
04:00 +22°C° 0 mm 6 mps 735 mmHg 53%
05:00 +21°C° 0 mm 6 mps 735 mmHg 55%
06:00 +21°C° 0 mm 7 mps 736 mmHg 53%
07:00 +21°C° 0 mm 7 mps 736 mmHg 51%
08:00 +22°C° 0 mm 7 mps 737 mmHg 49%
09:00 +24°C° 0 mm 7 mps 737 mmHg 45%
10:00 +27°C° 0 mm 7 mps 737 mmHg 40%
11:00 +29°C° 0 mm 6 mps 737 mmHg 35%
12:00 +32°C° 0 mm 6 mps 736 mmHg 32%
13:00 +33°C° 0 mm 6 mps 735 mmHg 30%
14:00 +34°C° 0 mm 5 mps 734 mmHg 27%
15:00 +34°C° 0 mm 5 mps 733 mmHg 28%
16:00 +34°C° 0 mm 4 mps 733 mmHg 28%
17:00 +33°C° 0 mm 4 mps 733 mmHg 29%
18:00 +32°C° 0 mm 4 mps 733 mmHg 32%
19:00 +29°C° 0 mm 4 mps 733 mmHg 36%
20:00 +27°C° 0 mm 3 mps 734 mmHg 39%
21:00 +26°C° 0 mm 4 mps 734 mmHg 40%
22:00 +25°C° 0 mm 5 mps 735 mmHg 41%
23:00 +23°C° 0 mm 6 mps 735 mmHg 43%
Show more